Probability
0 0 0 0 0 0 0 0 0 0 0 0 0 0 0 0 0 0 0 0 0 0 1 2 3 3 3 2 1 0 0 0 0 0 0 0 0 0 0 0 0 0 0 0
0 0 0 0 0 0 0 0 0 0 0 0 0 0 0 0 0 0 0 0 0 0 1 2 3 3 3 2 1 0 0 0 0 0 0 0 0 0 0 0 0 0 0 0
0 0 0 0 0 0 0 0 0 0 0 0 0 0 0 0 0 0 0 0 0 0 0 1 2 3 3 2 1 0 0 0 0 0 0 0 0 0 0 0 0 0 0 0
0 0 0 0 0 0 0 0 0 0 0 0 0 0 0 0 0 0 0 0 0 0 0 0 1 1 2 2 1 0 0 0 0 0 0 0 0 0 0 0 0 0 0 0
0 0 0 0 0 0 0 0 0 0 0 0 0 0 0 0 0 0 0 0 0 0 0 0 0 0 1 1 0 0 0 0 0 0 0 0 0 0 0 0 0 0 0 0
0 0 0 0 0 0 0 0 0 0 0 0 0 0 0 0 0 0 0 0 0 0 0 0 0 0 0 0 0 0 0 0 0 0 0 0 0 0 0 0 0 0 0 0
0 0 0 0 0 0 0 0 0 0 0 0 0 0 0 0 0 0 0 0 0 0 0 0 0 0 0 0 0 0 0 0 0 0 0 0 0 0 0 0 0 0 0 0
0 0 0 0 0 0 0 0 0 0 0 0 0 0 0 0 0 0 0 0 0 0 0 0 0 0 0 0 0 0 0 0 0 0 0 0 0 0 0 0 0 0 0 0
0 0 0 0 0 0 0 0 0 0 0 0 0 0 0 0 0 0 0 0 0 0 0 0 0 0 0 0 0 0 0 0 0 0 0 0 0 0 0 0 0 0 0 0
0 0 0 0 0 0 0 0 0 0 0 0 0 0 0 0 0 0 0 0 0 0 0 0 0 0 0 0 0 0 0 0 0 0 0 0 0 0 0 0 0 0 0 0
0 0 0 0 0 0 0 0 0 0 0 0 0 0 0 0 0 0 0 0 0 0 0 0 0 0 0 0 0 0 0 0 0 0 0 0 0 0 0 0 0 0 0 0
0 0 0 0 0 0 0 0 0 0 0 0 0 0 0 0 0 0 0 0 0 0 0 0 0 0 0 0 0 0 0 0 0 0 0 0 0 0 0 0 0 0 0 0
0 0 0 0 0 0 0 0 0 0 0 0 0 0 0 0 0 0 0 0 0 0 0 0 0 0 0 0 0 0 0 0 0 0 0 0 0 0 0 0 0 0 0 0
0 0 0 0 0 0 0 0 0 0 0 0 0 0 0 0 0 0 0 0 0 0 0 0 0 0 0 0 0 0 0 0 0 0 0 0 0 0 0 0 0 0 0 0
0 0 0 0 0 0 0 0 0 0 0 0 0 0 0 0 0 0 0 0 0 0 0 0 0 0 0 0 0 0 0 0 0 0 0 0 0 0 0 0 0 0 0 0
0 0 0 0 0 0 0 0 0 0 0 0 0 0 0 0 0 0 0 0 0 0 0 0 0 0 0 0 0 0 0 0 0 0 0 0 0 0 0 0 0 0 0 0
0 0 0 0 0 0 0 0 0 0 0 0 0 0 0 0 0 0 0 0 0 0 0 0 0 0 0 0 0 0 0 0 0 0 0 0 0 0 0 0 0 0 0 0
0 0 0 0 0 0 0 0 0 0 0 0 0 0 0 0 0 0 0 0 0 0 0 0 0 0 0 0 0 0 0 0 0 0 0 0 0 0 0 0 0 0 0 0
0 0 0 0 0 0 0 0 0 0 0 0 0 0 0 0 0 0 0 0 0 0 0 0 0 0 0 0 0 0 0 0 0 0 0 0 0 0 0 0 0 0 0 0
0 0 0 0 0 0 0 0 0 0 0 0 0 0 0 0 0 0 0 0 0 0 0 0 0 0 0 0 0 0 0 0 0 0 0 0 0 0 0 0 0 0 0 0
0 0 0 0 0 0 0 0 0 0 0 0 0 0 0 0 0 0 0 0 0 0 0 0 0 0 0 0 0 0 0 0 0 0 0 0 0 0 0 0 0 0 0 0
0 0 0 0 0 0 0 0 0 0 0 0 0 0 0 0 0 0 0 0 0 0 0 0 0 0 0 0 0 0 0 0 0 0 0 0 0 0 0 0 0 0 0 0
0 0 0 0 0 0 0 0 0 0 0 0 0 0 0 0 0 0 0 0 0 0 0 0 0 0 0 0 0 0 0 0 0 0 0 0 0 0 0 0 0 0 0 0
0 0 0 0 0 0 0 0 0 0 0 0 0 0 0 0 0 0 0 0 0 0 0 0 0 0 0 0 0 0 0 0 0 0 0 0 0 0 0 0 0 0 0 0
0 0 0 0 0 0 0 0 0 0 0 0 0 0 0 0 0 0 0 0 0 0 0 0 0 0 0 0 0 0 0 0 0 0 0 0 0 0 0 0 0 0 0 0
0 0 0 0 0 0 0 0 0 0 0 0 0 0 0 0 0 0 0 0 0 0 0 0 0 0 0 0 0 0 0 0 0 0 0 0 0 0 0 0 0 0 0 0
0 0 0 0 0 0 0 0 0 0 0 0 0 0 0 0 0 0 0 0 0 0 0 0 0 0 0 0 0 0 0 0 0 0 0 0 0 0 0 0 0 0 0 0
Wind_Speed
5 6 5 6 7 6 6 6 7 8 8 8 5 5 5 4 5 6 6 7 7 7 6 6 7 6 5 4 3 2 1 0 0 0 1 1 2 2 3 3 3 4 3 3
5 6 6 8 9 8 8 8 9 10 11 4 4 4 5 5 5 6 6 7 7 7 7 6 6 7 6 4 3 2 2 2 1 1 1 1 2 2 3 3 3 3 3 3
3 2 5 8 7 7 6 5 6 8 7 4 4 5 5 5 5 5 6 7 7 7 7 7 6 6 6 5 3 2 2 2 1 1 2 2 2 2 3 3 3 3 3 3
3 2 6 5 1 3 4 6 5 6 4 4 5 5 4 3 3 5 6 7 7 7 7 7 7 6 5 5 4 3 2 2 2 2 2 2 2 2 2 2 3 3 3 3
2 4 8 3 1 2 2 6 5 5 4 4 5 5 3 2 4 4 5 5 5 5 6 6 6 6 5 4 4 4 3 2 2 1 2 3 3 2 2 2 3 3 3 4
3 3 6 2 2 1 0 5 1 1 3 3 4 4 4 4 5 5 5 4 5 5 6 6 6 6 5 4 4 4 3 2 2 1 2 2 2 2 2 3 3 3 3 3
5 6 7 1 2 2 2 5 2 1 2 2 3 4 5 5 4 4 4 4 4 4 4 5 6 6 5 5 5 4 3 2 2 2 2 2 2 2 3 3 4 4 4 3
4 5 8 3 4 4 4 2 2 3 3 3 4 5 5 4 4 4 4 4 4 4 4 4 5 5 5 5 5 5 4 3 3 3 2 3 3 3 3 4 4 3 4 3
7 7 2 4 3 2 1 2 3 3 3 3 4 5 5 5 4 4 4 4 4 4 4 4 4 4 4 5 5 5 4 4 3 3 3 3 3 3 3 3 3 2 2 2
5 6 4 4 3 2 2 3 3 3 3 3 4 5 5 4 4 4 4 3 3 3 3 4 4 4 4 4 4 4 4 3 3 3 3 3 3 2 2 2 2 2 2 2
7 6 4 4 4 3 3 3 3 3 3 3 4 4 4 4 4 3 3 3 3 2 3 4 4 4 4 4 4 3 3 3 3 3 3 3 3 2 2 2 1 1 1 1
7 4 4 4 2 3 3 3 3 3 4 3 3 4 4 3 3 2 2 2 2 3 3 3 4 4 4 4 3 3 3 3 2 2 2 2 2 3 4 3 4 3 3 2
5 2 3 3 2 2 3 4 3 3 4 4 3 3 3 3 2 2 2 2 2 2 2 3 3 3 3 3 3 2 2 2 2 2 1 1 1 1 2 3 3 3 3 3
3 2 3 4 4 3 4 3 3 3 3 3 3 2 2 2 2 2 2 2 2 2 2 2 2 3 3 2 2 2 2 2 1 1 1 1 1 1 1 1 1 1 2 2
5 4 4 3 3 3 3 2 2 3 3 3 2 2 2 2 3 3 2 1 1 1 2 2 2 3 2 2 2 1 1 1 1 1 1 1 1 1 1 1 1 1 1 2
4 4 4 4 5 4 3 3 4 4 3 3 2 2 2 2 3 2 2 1 1 2 2 2 2 2 2 1 1 1 1 1 1 1 1 1 1 1 1 1 1 1 1 1
4 5 6 6 6 5 5 5 4 4 3 3 3 2 2 2 2 2 2 1 1 2 2 1 2 2 1 1 1 1 1 1 1 1 0 0 0 0 1 1 1 1 1 1
7 6 6 6 6 5 5 4 4 4 4 3 2 2 2 2 3 3 2 1 1 1 2 2 1 1 1 1 1 1 0 1 1 0 0 0 1 1 1 1 1 1 0 1
5 5 5 5 5 4 4 4 4 3 3 2 3 3 3 3 3 2 1 1 1 2 3 2 1 1 1 1 1 0 0 0 1 1 1 1 1 1 1 1 1 1 1 1
4 4 4 3 3 3 3 3 3 2 2 2 2 2 2 2 2 1 1 2 2 2 1 1 0 0 0 0 0 0 0 0 0 1 1 0 0 1 1 1 1 1 0 0
4 3 3 3 3 3 3 3 3 3 2 3 3 3 2 2 1 1 1 2 2 1 0 0 0 0 0 0 0 0 0 0 0 0 0 0 0 1 1 1 0 0 0 0
3 3 4 3 3 3 3 3 3 3 3 2 2 2 2 1 1 1 1 2 1 1 0 0 0 1 0 1 1 0 0 0 0 1 1 0 0 0 0 0 0 0 0 0
3 3 3 3 3 3 2 2 3 3 3 3 3 3 3 2 1 1 1 1 0 0 0 0 0 0 1 1 1 1 1 1 1 1 0 0 0 1 1 0 0 0 0 1
3 3 3 2 2 2 2 2 2 2 2 2 2 3 2 1 1 1 1 1 0 0 0 0 0 1 1 1 1 1 1 1 1 0 0 0 1 1 0 0 0 0 1 1
2 2 2 3 3 3 3 3 2 2 2 1 1 2 2 2 1 1 0 1 1 1 0 0 0 1 1 1 1 1 1 1 1 1 0 0 0 0 0 0 0 1 1 1
2 2 2 3 2 2 2 3 2 2 2 2 1 1 1 1 1 1 1 1 1 1 1 0 0 1 1 1 1 1 1 0 0 0 0 0 0 0 0 1 1 1 1 1
2 2 1 1 1 2 2 3 3 3 3 3 2 1 2 1 1 1 1 1 1 1 1 1 1 1 1 1 1 1 0 0 0 0 0 0 0 1 1 1 1 1 1 2
Wind_Direction
273 283 276 265 264 254 241 242 247 265 272 283 302 311 319 331 332 337 341 347 351 346 346 347 343 340 337 339 359 0 353 348 290 34 119 129 138 139 143 143 145 149 148 153
275 262 262 265 258 251 252 253 257 271 279 289 307 321 327 333 335 334 336 342 344 345 345 346 341 336 336 337 349 5 10 8 10 47 98 119 134 136 137 137 138 136 141 149
275 286 301 268 238 220 232 240 245 255 267 315 320 314 315 321 326 333 335 336 340 341 340 337 335 334 331 332 340 358 11 8 7 46 86 91 102 124 133 138 136 137 143 139
283 313 252 242 146 179 233 257 252 266 291 303 298 298 302 312 334 334 332 330 334 336 333 334 335 331 333 344 354 0 6 22 16 34 79 81 85 102 112 125 137 132 126 125
250 266 273 244 208 164 220 271 242 251 279 306 325 315 300 350 350 328 321 324 329 330 327 332 336 333 341 352 1 8 3 12 14 44 71 78 80 93 103 110 115 121 124 126
233 249 258 254 118 114 92 274 278 246 277 302 330 304 292 329 329 327 329 332 333 335 335 337 337 340 348 351 1 0 355 1 8 57 78 79 78 81 92 107 110 104 99 108
233 246 262 196 137 116 196 263 330 304 283 285 275 270 302 322 323 321 325 329 335 338 335 333 337 347 350 355 357 352 360 20 36 54 73 83 74 69 85 94 94 91 89 86
206 228 252 152 143 192 237 313 327 317 304 293 294 302 313 319 320 323 327 329 335 335 333 338 346 352 353 355 352 356 12 36 43 48 57 72 83 76 81 93 93 94 94 84
206 220 214 162 195 226 336 299 302 305 300 292 294 295 304 307 311 316 321 324 332 334 334 345 352 357 354 350 357 4 21 38 47 52 55 59 77 82 77 80 88 91 96 98
264 261 248 225 239 272 286 280 290 290 290 284 282 288 293 299 304 310 319 323 333 338 340 344 349 358 356 350 359 11 24 29 38 50 51 48 54 66 78 82 90 98 109 110
257 272 286 250 234 248 268 278 284 282 276 272 274 280 282 287 292 301 313 319 330 329 331 337 348 357 356 358 6 15 23 30 33 43 53 49 48 54 64 65 113 128 121 124
236 233 231 258 237 237 249 257 259 267 274 271 264 268 274 279 284 295 308 320 327 332 340 340 349 353 354 359 8 19 22 22 26 33 47 55 60 52 49 63 60 57 60 70
236 246 245 261 261 237 242 256 257 255 259 267 266 261 270 281 293 301 311 315 312 316 322 331 348 350 350 358 12 21 20 14 20 30 41 46 60 82 66 49 53 54 56 50
230 222 254 246 249 252 254 255 250 254 256 258 263 270 273 278 290 292 289 289 299 310 316 327 344 339 342 357 10 15 17 17 19 36 33 34 38 53 101 108 72 38 42 45
222 218 234 253 253 252 251 245 251 259 265 269 267 263 264 268 272 273 277 285 304 311 311 324 334 327 341 4 10 11 9 5 26 43 38 42 45 41 67 81 85 56 39 45
219 223 229 241 250 249 239 235 242 254 258 262 263 258 253 253 265 275 275 244 244 275 291 302 305 313 340 2 352 355 13 16 15 31 24 30 60 68 80 87 80 69 48 34
198 223 228 240 245 246 235 230 234 239 242 246 246 247 251 260 276 288 289 271 256 270 284 284 288 316 344 344 340 355 13 6 358 6 359 16 50 63 85 96 95 77 38 4
212 224 224 227 232 237 237 233 232 232 234 237 234 223 222 230 248 264 275 292 316 321 308 285 290 332 346 340 343 359 11 6 3 31 33 46 55 62 84 105 121 113 77 43
222 230 231 230 229 226 227 228 226 223 223 214 214 221 225 232 241 260 278 275 274 285 293 288 310 347 347 353 18 31 40 43 28 38 47 34 27 66 101 114 124 116 96 64
230 232 232 231 220 212 219 221 212 213 209 196 206 221 233 243 241 245 242 239 245 256 274 282 254 265 281 263 38 56 60 66 60 52 46 45 79 91 103 114 114 103 91 70
230 229 224 218 218 216 211 205 199 209 208 191 198 212 225 244 242 225 228 264 281 280 267 217 159 251 221 171 161 75 143 161 128 96 91 82 80 90 100 99 93 71 62 35
227 225 223 215 211 222 215 197 192 196 195 193 195 194 202 231 243 255 245 248 276 339 19 229 216 210 169 131 146 155 158 128 99 89 92 95 102 111 109 112 133 134 275 268
224 220 214 211 210 211 197 191 191 190 194 195 192 194 203 214 210 211 258 280 281 287 11 218 230 154 130 115 106 109 100 90 76 64 64 75 111 129 141 172 200 215 232 258
221 216 212 196 171 172 198 213 196 189 188 192 194 194 192 197 230 226 227 206 218 249 201 234 193 147 123 95 101 106 110 109 98 86 72 66 83 100 111 145 252 268 266 276
211 207 191 177 182 196 197 180 163 165 169 182 192 191 188 188 200 208 165 170 203 145 127 254 191 124 110 97 114 125 135 141 140 128 113 97 104 112 133 271 271 268 273 276
195 198 200 201 196 181 168 163 172 179 174 175 179 176 169 156 149 139 143 149 157 131 95 98 135 151 132 126 126 128 121 112 76 95 119 147 145 239 272 279 282 278 279 277
181 182 179 188 192 177 169 171 175 182 181 174 175 170 155 143 136 133 132 124 124 118 101 96 104 122 131 129 121 113 109 111 122 144 182 227 258 262 267 271 276 278 277 276